Location: *
(55.6049°S, 142.1985°W)
Time: 14:40:31
(UTC+00:00)

Cosmos 1943 - Pass Details

Date: 12 May 2021
Orbit: 833 x 850 km, 71.0° (Epoch: 17 June)

Event Time Altitude Azimuth Distance (km) Brightness Sun altitude
Exits shadow 15:51:10 - 219° (SW) 2,624 5.3 -11.4°
Reaches altitude 10° 15:51:29 10° 219° (SW) 2,508 5.2 -11.4°
Maximum altitude 15:57:05 55° 295° (WNW) 1,028 3.4 -10.6°
Drops below altitude 10° 16:02:36 10° 11° (N) 2,470 6.0 -9.9°
Sets 16:05:04 0° 15° (NNE) 3,395 6.8 -9.6°
